Wind_Speed
9 9 9 9 10 9 9 9 10 10 10 10 10 10 11 11 11 10 10 10 9 9 9 9 9 9 10 10 9 9 9 9 9 9 9 8 8 8 8 8 9 10 11
10 10 10 10 10 10 10 10 10 11 12 12 12 12 12 12 11 11 11 11 10 10 10 10 10 10 10 10 9 9 9 9 9 8 8 9 9 9 9 10 10 11 12
11 11 11 11 11 11 12 11 11 12 12 13 13 13 13 12 12 12 12 12 12 11 11 11 10 10 10 10 10 10 10 10 9 9 9 9 10 10 10 11 11 12 12
12 12 12 12 12 12 12 13 13 13 13 13 13 13 13 13 13 13 12 12 12 12 12 12 12 11 11 11 11 11 11 10 10 10 10 10 11 11 12 12 13 13 13
13 13 13 13 13 13 13 13 13 13 13 13 13 13 14 14 13 13 14 14 13 13 12 12 12 12 12 12 12 12 12 12 12 12 12 13 13 13 13 14 14 15 15
15 14 14 14 15 15 14 14 14 14 14 14 13 13 13 14 14 14 14 14 14 14 14 14 14 13 13 13 14 14 14 13 13 14 14 14 14 15 15 15 16 17 17
16 16 16 15 15 15 15 15 15 15 15 14 14 14 14 14 14 14 14 14 15 15 15 15 15 15 15 15 15 15 15 15 15 15 15 16 16 17 17 17 17 18 18
18 17 17 17 17 16 16 16 15 15 15 15 15 15 15 15 15 15 15 15 15 16 16 16 16 16 16 17 17 17 17 17 17 17 17 17 17 18 18 18 18 19 19
19 19 18 19 18 18 18 17 17 16 16 16 16 16 16 16 16 16 16 16 16 17 17 17 17 17 18 18 18 18 19 19 19 19 19 19 19 19 19 19 19 20 20
21 21 20 20 19 20 20 19 19 19 18 18 18 18 17 17 16 17 18 18 18 18 18 18 18 18 19 19 20 20 20 20 21 21 21 21 20 21 21 22 22 22 22
23 23 22 21 21 21 21 21 21 21 20 20 20 19 19 18 18 18 18 19 20 19 19 19 19 20 20 20 21 22 22 22 22 22 22 22 22 22 22 23 24 24 24
25 25 24 24 24 23 23 23 23 22 23 22 22 21 21 20 19 19 19 20 20 20 20 20 21 22 22 22 22 22 23 24 24 24 23 23 23 24 24 24 25 25 25
27 27 27 26 26 25 25 25 24 24 24 24 23 22 22 21 21 21 20 20 21 21 21 22 22 23 23 23 24 24 25 25 26 26 25 24 24 25 25 24 25 25 26
28 28 27 27 26 26 26 26 26 26 26 25 25 24 24 23 23 22 22 21 22 22 22 23 23 24 24 24 25 25 25 26 26 25 26 26 26 26 25 25 25 25 26
27 27 27 26 26 26 26 25 25 25 26 25 25 25 24 24 24 23 23 23 23 23 23 23 24 24 25 25 26 26 26 26 26 26 26 26 26 26 25 26 26 27 27
27 27 28 28 27 27 27 26 24 24 24 24 25 25 25 25 24 25 24 24 24 25 25 25 25 26 26 27 27 26 26 26 26 27 27 27 27 27 27 26 26 27 27
28 28 28 28 27 27 27 26 25 25 24 24 24 25 25 25 25 25 25 26 26 26 26 26 26 27 27 27 26 26 26 26 26 26 27 27 27 27 27 27 27 27 28
29 29 28 28 27 27 26 26 25 24 24 24 25 25 25 25 26 26 26 27 26 26 26 26 26 25 25 25 25 25 24 24 24 25 26 27 27 27 28 28 28 28 29
29 29 28 28 27 27 26 26 26 25 25 25 25 25 25 25 26 26 26 26 26 26 26 26 26 25 25 24 24 24 24 24 24 24 25 26 26 27 27 28 29 29 29
29 28 28 27 27 26 26 26 26 25 24 24 24 25 25 25 25 26 26 26 26 25 25 26 25 25 24 24 24 24 24 24 24 25 26 27 27 28 28 29 30 30 31
29 28 28 27 27 26 26 26 26 25 24 24 24 24 25 25 25 25 25 25 25 25 26 26 25 25 23 23 23 23 23 24 25 26 26 27 28 29 29 29 30 31 31
29 28 27 26 26 25 25 25 24 24 24 24 24 24 24 25 25 24 24 24 25 25 25 26 25 24 24 24 24 24 24 25 26 27 27 27 27 28 28 29 29 30 31
29 28 27 26 25 24 24 24 23 23 23 23 24 24 24 24 24 23 23 24 25 25 25 25 24 24 24 24 24 24 25 25 26 26 27 27 27 27 27 28 29 30 31
29 28 27 26 25 24 24 23 23 23 23 23 23 23 23 23 23 23 23 24 24 24 25 25 24 24 23 23 23 24 24 25 24 24 25 25 26 26 26 27 28 29 30
29 28 27 26 25 24 24 23 23 23 24 24 24 24 24 23 23 23 24 24 24 23 24 24 23 23 23 22 23 23 23 23 23 23 24 24 25 25 26 26 28 29 29
28 27 26 26 25 25 24 24 24 24 24 25 25 25 24 24 24 24 25 25 25 24 23 23 23 23 23 23 23 23 23 23 23 24 24 24 25 26 26 27 28 29 29
Wind_Direction
305 306 304 301 302 303 301 297 294 294 296 292 289 288 288 288 288 285 282 283 282 279 278 277 278 280 282 282 282 282 284 286 286 287 284 283 282 284 287 288 287 286 286
301 302 302 301 301 301 301 297 292 291 292 291 287 284 286 286 285 282 281 280 280 279 278 276 275 277 280 282 283 283 283 284 285 285 288 288 284 283 286 289 289 289 289
300 300 300 301 300 298 296 294 292 291 289 287 285 284 284 283 282 281 279 278 278 275 274 274 275 275 276 277 280 281 278 280 284 286 288 289 289 287 285 288 291 292 293
296 296 298 299 299 297 294 291 289 289 287 286 286 283 281 280 279 279 280 278 277 276 275 274 273 272 273 273 275 277 276 277 281 285 286 287 288 289 285 286 289 291 292
292 292 294 295 295 296 294 291 289 290 289 288 286 284 283 280 277 275 275 277 276 276 275 275 274 272 271 271 273 274 277 277 278 282 284 285 286 289 287 287 287 288 290
289 290 291 290 293 294 292 289 286 287 288 287 285 284 285 282 278 277 275 273 275 275 273 274 274 274 273 271 271 273 274 276 277 279 282 285 287 288 290 290 290 290 291
288 288 288 288 291 292 289 287 286 285 286 285 285 284 282 282 279 276 275 275 273 273 272 274 273 274 274 273 273 274 275 277 278 279 281 284 285 287 290 291 291 292 293
283 284 285 287 288 288 287 284 284 285 285 286 284 282 281 280 279 274 274 276 275 272 273 274 275 273 271 272 273 273 274 276 278 280 281 283 285 286 288 291 292 293 293
282 282 283 284 283 284 283 282 281 282 285 286 283 281 280 279 277 274 275 276 275 274 275 275 275 274 273 273 273 273 274 276 277 278 280 283 283 285 287 289 291 292 293
281 281 282 281 281 281 281 279 279 281 284 285 282 279 279 278 275 273 274 275 275 276 276 275 276 276 275 275 275 273 274 276 276 277 278 279 281 284 286 288 291 292 292
278 281 282 280 279 279 278 277 277 278 280 281 280 278 278 277 275 273 274 275 275 276 275 276 277 277 277 277 277 276 274 275 276 277 277 278 279 281 284 287 288 290 292
276 278 279 279 279 278 277 276 276 275 276 277 277 277 276 274 274 273 273 272 273 274 275 276 277 277 276 277 277 277 276 275 276 277 276 277 279 280 282 285 288 289 291
274 276 278 278 278 277 276 276 274 273 274 274 275 276 275 274 274 273 272 271 273 273 274 276 278 278 277 277 278 278 278 277 277 276 276 277 279 280 282 284 287 290 292
274 274 275 276 276 276 275 275 273 271 271 272 272 273 273 272 272 271 270 270 273 275 276 277 278 277 277 278 279 279 279 278 275 276 276 276 277 280 282 284 288 289 292
273 273 274 275 275 276 276 276 274 273 271 270 269 270 270 270 269 270 270 271 273 276 278 278 279 278 278 278 279 278 278 277 276 276 276 276 278 280 283 285 287 288 290
273 274 274 275 275 275 275 274 273 272 272 271 270 270 269 268 268 269 271 272 273 275 276 277 278 278 278 279 280 278 278 277 277 277 277 277 278 279 282 284 286 288 289
274 275 276 275 275 275 273 272 271 269 269 270 271 271 269 267 267 267 269 271 273 276 277 279 280 280 279 280 280 279 279 278 278 278 277 277 279 280 281 284 287 288 289
275 276 275 274 274 273 271 270 269 268 268 269 270 271 271 269 267 268 270 271 272 275 277 279 282 281 281 281 280 279 279 278 279 279 279 278 279 280 281 283 285 289 290
274 275 275 273 272 271 270 269 268 268 269 270 270 271 272 271 270 269 269 270 272 273 276 279 280 281 282 281 279 279 281 280 280 280 280 280 281 282 283 284 285 287 290
271 272 273 273 272 271 270 269 269 269 269 270 270 270 271 271 271 269 269 269 271 273 276 278 278 279 280 279 279 280 281 282 282 282 282 282 283 283 283 284 285 286 288
269 269 271 272 271 271 271 270 268 267 267 268 270 272 272 271 271 270 270 269 271 273 277 278 277 276 278 278 279 280 281 283 284 284 284 284 283 284 284 285 287 288 289
267 267 268 270 271 271 271 270 268 267 266 268 270 271 270 270 269 269 270 272 274 275 277 277 276 276 278 279 279 279 282 283 285 286 287 286 286 285 286 288 289 291 291
264 265 266 267 268 269 269 268 269 267 267 268 268 269 269 269 268 268 271 275 278 277 276 275 275 277 278 278 280 282 284 285 286 287 287 287 287 287 288 290 291 294 295
261 262 263 264 265 266 266 267 266 266 267 267 268 269 268 268 267 269 271 275 277 277 277 276 277 277 276 278 282 285 288 288 287 288 289 289 289 288 290 293 295 297 298
260 260 259 260 261 263 265 266 266 266 265 266 268 268 267 268 270 272 272 274 277 279 280 278 278 277 277 280 283 284 287 288 288 289 290 291 291 290 292 295 297 298 300
257 257 257 258 259 261 263 264 266 267 267 267 267 267 267 269 271 272 273 274 277 279 279 278 277 278 278 280 282 284 285 285 287 289 290 291 292 291 292 295 297 299 301
Height
5845 5844 5842 5841 5840 5839 5837 5836 5835 5834 5833 5833 5832 5831 5830 5830 5829 5829 5828 5827 5827 5827 5826 5826 5825 5825 5824 5823 5822 5821 5821 5820 5819 5819 5818 5817 5816 5815 5814 5813 5812 5811 5810
5842 5841 5840 5838 5837 5836 5834 5833 5832 5831 5830 5829 5828 5828 5827 5826 5826 5825 5825 5824 5824 5824 5823 5823 5822 5822 5821 5821 5820 5819 5818 5818 5817 5816 5815 5814 5814 5813 5812 5811 5810 5809 5808
5839 5838 5837 5836 5834 5833 5831 5830 5829 5827 5826 5825 5824 5824 5823 5823 5822 5822 5821 5821 5820 5820 5820 5820 5819 5819 5818 5818 5817 5816 5816 5815 5814 5814 5813 5812 5811 5810 5809 5808 5807 5806 5805
5836 5835 5834 5832 5831 5829 5828 5826 5825 5824 5822 5821 5821 5820 5819 5819 5819 5818 5818 5817 5817 5817 5816 5816 5816 5815 5815 5814 5814 5813 5813 5812 5811 5811 5810 5809 5808 5807 5806 5805 5804 5803 5801
5832 5831 5830 5828 5827 5825 5824 5822 5821 5820 5819 5818 5817 5816 5816 5815 5815 5814 5814 5814 5813 5813 5813 5812 5812 5812 5811 5811 5811 5810 5809 5809 5808 5808 5807 5806 5805 5804 5803 5801 5800 5799 5797
5828 5827 5825 5824 5823 5821 5820 5818 5817 5816 5815 5814 5813 5812 5812 5811 5811 5810 5810 5810 5810 5809 5809 5809 5808 5808 5807 5807 5807 5806 5806 5805 5805 5804 5803 5802 5801 5800 5798 5797 5796 5794 5793
5824 5822 5821 5819 5818 5817 5815 5814 5813 5812 5811 5810 5809 5808 5808 5807 5806 5806 5806 5805 5805 5805 5805 5804 5804 5803 5803 5803 5803 5802 5802 5801 5801 5800 5799 5798 5797 5795 5794 5793 5791 5790 5788
5818 5817 5816 5815 5813 5812 5811 5809 5808 5807 5806 5805 5804 5804 5803 5802 5802 5801 5801 5801 5801 5800 5800 5800 5799 5799 5799 5798 5798 5797 5797 5797 5796 5795 5794 5793 5792 5790 5789 5788 5786 5785 5783
5813 5812 5810 5809 5808 5806 5805 5804 5803 5803 5802 5801 5800 5799 5798 5797 5797 5796 5796 5796 5796 5796 5795 5795 5794 5794 5793 5793 5793 5792 5792 5791 5790 5789 5789 5788 5786 5785 5784 5783 5781 5779 5777
5807 5806 5804 5803 5802 5801 5800 5799 5798 5797 5796 5795 5795 5794 5793 5792 5791 5791 5791 5791 5791 5791 5790 5790 5789 5788 5788 5787 5787 5786 5786 5785 5785 5784 5783 5782 5781 5780 5778 5777 5775 5774 5771
5800 5799 5798 5796 5795 5794 5793 5792 5792 5791 5790 5790 5789 5788 5787 5786 5786 5785 5785 5785 5784 5784 5784 5784 5783 5782 5782 5781 5780 5780 5780 5779 5778 5778 5777 5776 5775 5774 5772 5771 5769 5767 5765
5792 5791 5790 5789 5788 5787 5786 5785 5784 5784 5783 5783 5782 5781 5781 5780 5779 5779 5779 5778 5778 5778 5778 5778 5777 5776 5775 5774 5774 5773 5773 5772 5771 5770 5770 5769 5768 5767 5765 5764 5762 5760 5758
5784 5783 5782 5781 5780 5779 5777 5777 5776 5776 5776 5775 5775 5774 5774 5773 5773 5773 5772 5772 5772 5771 5771 5771 5770 5769 5768 5767 5767 5766 5765 5764 5764 5763 5762 5762 5761 5759 5758 5756 5755 5753 5751
5775 5774 5773 5772 5771 5770 5769 5768 5767 5767 5767 5767 5766 5766 5766 5766 5766 5765 5765 5765 5765 5764 5764 5763 5763 5762 5761 5760 5759 5758 5757 5756 5756 5755 5755 5754 5753 5752 5750 5749 5747 5745 5744
5766 5765 5764 5763 5762 5761 5760 5759 5758 5758 5757 5757 5757 5757 5758 5758 5758 5758 5758 5758 5757 5757 5756 5756 5755 5754 5753 5752 5751 5750 5749 5748 5747 5747 5746 5746 5745 5744 5742 5741 5740 5738 5736
5757 5757 5756 5755 5754 5753 5752 5751 5750 5749 5749 5748 5748 5749 5749 5749 5750 5750 5750 5750 5750 5749 5749 5748 5747 5746 5745 5744 5742 5741 5740 5739 5739 5738 5738 5737 5736 5735 5735 5733 5731 5730 5728
5748 5747 5746 5745 5744 5743 5743 5742 5741 5741 5740 5740 5740 5740 5740 5741 5741 5742 5742 5741 5741 5741 5740 5739 5738 5737 5736 5735 5733 5732 5731 5731 5730 5730 5729 5728 5727 5727 5726 5725 5723 5721 5720
5738 5738 5737 5736 5735 5734 5734 5733 5733 5733 5733 5732 5732 5732 5732 5732 5732 5733 5733 5733 5732 5732 5732 5731 5730 5729 5727 5726 5725 5724 5723 5722 5722 5721 5720 5720 5719 5718 5717 5716 5715 5713 5711
5729 5728 5727 5727 5726 5725 5725 5725 5724 5724 5724 5724 5724 5724 5724 5723 5723 5723 5723 5724 5724 5724 5724 5723 5722 5721 5719 5718 5717 5716 5716 5715 5714 5713 5712 5711 5710 5709 5708 5707 5706 5704 5702
5719 5719 5718 5717 5717 5717 5716 5716 5716 5716 5715 5715 5715 5715 5715 5714 5714 5715 5715 5715 5715 5716 5715 5714 5713 5713 5712 5711 5710 5709 5709 5708 5707 5706 5705 5704 5702 5701 5699 5698 5696 5695 5693
5710 5710 5709 5709 5708 5708 5708 5708 5707 5707 5707 5707 5707 5707 5706 5706 5706 5706 5706 5707 5707 5707 5707 5706 5706 5705 5704 5704 5703 5702 5701 5700 5699 5698 5697 5695 5693 5692 5691 5689 5687 5685 5683
5700 5700 5700 5700 5700 5700 5700 5699 5699 5699 5699 5699 5699 5698 5698 5698 5698 5698 5699 5699 5699 5699 5699 5698 5698 5697 5697 5696 5696 5695 5694 5693 5691 5690 5688 5687 5685 5683 5682 5680 5678 5676 5673
5691 5691 5691 5692 5692 5691 5691 5691 5691 5691 5691 5691 5691 5691 5691 5691 5691 5691 5691 5692 5691 5691 5691 5690 5690 5689 5689 5688 5687 5686 5685 5684 5683 5681 5680 5678 5676 5675 5673 5671 5669 5666 5664
5681 5682 5682 5683 5683 5683 5684 5684 5684 5684 5684 5684 5684 5684 5684 5684 5684 5684 5684 5684 5684 5683 5683 5682 5682 5681 5681 5680 5679 5678 5677 5675 5674 5673 5671 5670 5668 5666 5664 5662 5660 5657 5654
5671 5672 5673 5674 5675 5675 5676 5676 5676 5676 5676 5676 5677 5677 5677 5677 5677 5677 5677 5676 5676 5675 5675 5674 5674 5674 5673 5672 5671 5670 5669 5667 5666 5665 5663 5662 5660 5658 5656 5654 5652 5649 5645
5662 5663 5665 5666 5667 5667 5668 5668 5668 5668 5668 5668 5669 5669 5669 5669 5669 5669 5669 5668 5668 5667 5667 5667 5666 5666 5665 5664 5663 5662 5661 5660 5658 5657 5655 5654 5652 5650 5648 5646 5643 5640 5637